TimeCDT,TemperatureF,Dew PointF,Humidity,Sea Level PressureIn,VisibilityMPH,Wind Direction,Wind SpeedMPH,Gust SpeedMPH,PrecipitationIn,Events,Conditions,WindDirDegrees,DateUTC
12:53 AM,77.0,73.0,88,29.76,10.0,South,5.8,-,N/A,,Scattered Clouds,190,2013-06-01 05:53:00
1:29 AM,75.2,73.4,94,29.79,10.0,South,10.4,-,0.00,Rain-Thunderstorm,Light Rain,180,2013-06-01 06:29:00
1:53 AM,70.0,66.9,90,29.78,10.0,South,13.8,38.0,0.00,Rain-Thunderstorm,Light Thunderstorms and Rain,190,2013-06-01 06:53:00
2:53 AM,66.9,66.9,100,29.75,9.0,South,17.3,23.0,0.05,Rain-Thunderstorm,Light Rain,180,2013-06-01 07:53:00
3:10 AM,66.2,66.2,100,29.85,10.0,SSW,13.8,-,0.01,Rain-Thunderstorm,Light Thunderstorms and Rain,200,2013-06-01 08:10:00
3:53 AM,66.0,64.9,96,29.76,10.0,Calm,Calm,-,0.04,Rain-Thunderstorm,Light Thunderstorms and Rain,0,2013-06-01 08:53:00
4:09 AM,64.4,64.4,100,29.79,10.0,SSW,5.8,-,0.01,Rain,Light Rain,200,2013-06-01 09:09:00
4:23 AM,66.2,64.4,94,29.78,9.0,South,3.5,-,0.02,Rain-Thunderstorm,Light Rain,180,2013-06-01 09:23:00
4:38 AM,64.4,64.4,100,29.77,10.0,Calm,Calm,-,0.02,Rain,Light Rain,0,2013-06-01 09:38:00
4:53 AM,64.9,64.9,100,29.72,10.0,Calm,Calm,-,0.03,Rain-Thunderstorm,Light Rain,0,2013-06-01 09:53:00
5:31 AM,64.4,64.4,100,29.81,10.0,WNW,5.8,-,0.02,Rain,Light Rain,290,2013-06-01 10:31:00
5:49 AM,64.4,64.4,100,29.87,9.0,NW,6.9,-,0.05,Rain-Thunderstorm,Light Rain,320,2013-06-01 10:49:00
5:53 AM,64.9,64.9,100,29.83,7.0,NNW,12.7,-,0.05,Rain-Thunderstorm,Light Rain,330,2013-06-01 10:53:00
6:01 AM,64.4,64.4,100,29.85,7.0,North,9.2,-,0.01,Rain-Thunderstorm,Light Rain,350,2013-06-01 11:01:00
6:34 AM,64.4,64.4,100,29.86,7.0,SE,5.8,-,0.09,Rain-Thunderstorm,Rain,140,2013-06-01 11:34:00
6:53 AM,64.9,64.9,100,29.80,6.0,ESE,9.2,-,0.14,Rain-Thunderstorm,Rain,110,2013-06-01 11:53:00
7:25 AM,64.4,64.4,100,29.84,6.0,East,4.6,-,0.06,Rain,Rain,90,2013-06-01 12:25:00
7:53 AM,64.0,64.0,100,29.74,8.0,Variable,6.9,-,0.10,Rain,Light Rain,0,2013-06-01 12:53:00
8:18 AM,64.4,64.4,100,29.79,10.0,North,8.1,21.9,0.00,Rain,Light Rain,10,2013-06-01 13:18:00
8:51 AM,64.4,64.4,100,29.84,10.0,Variable,3.5,-,0.00,,Mostly Cloudy,0,2013-06-01 13:51:00
8:53 AM,64.9,64.9,100,29.81,10.0,WSW,4.6,-,0.00,,Mostly Cloudy,240,2013-06-01 13:53:00
9:53 AM,64.0,64.0,100,29.81,10.0,South,5.8,-,N/A,,Partly Cloudy,190,2013-06-01 14:53:00
10:20 AM,64.4,64.4,100,29.89,10.0,West,6.9,-,N/A,,Mostly Cloudy,270,2013-06-01 15:20:00
10:53 AM,64.9,64.9,100,29.88,10.0,WSW,8.1,-,0.01,,Overcast,240,2013-06-01 15:53:00
11:53 AM,64.9,64.9,100,29.90,10.0,WSW,4.6,-,N/A,,Overcast,240,2013-06-01 16:53:00
12:53 PM,66.9,64.9,93,29.90,10.0,West,3.5,-,N/A,,Overcast,260,2013-06-01 17:53:00
1:53 PM,68.0,64.0,87,29.91,10.0,Calm,Calm,-,N/A,,Overcast,0,2013-06-01 18:53:00
2:26 PM,69.8,66.2,88,29.92,10.0,South,3.5,-,N/A,,Mostly Cloudy,170,2013-06-01 19:26:00
2:53 PM,72.0,66.0,81,29.89,10.0,Variable,3.5,-,N/A,,Scattered Clouds,0,2013-06-01 19:53:00
3:53 PM,75.0,66.9,76,29.88,10.0,SW,4.6,-,N/A,,Partly Cloudy,220,2013-06-01 20:53:00
4:53 PM,75.0,64.9,71,29.88,10.0,West,4.6,-,N/A,,Scattered Clouds,270,2013-06-01 21:53:00
5:53 PM,75.9,64.9,69,29.87,10.0,West,8.1,-,N/A,,Partly Cloudy,270,2013-06-01 22:53:00
6:53 PM,73.9,64.9,73,29.88,10.0,NW,13.8,-,N/A,,Scattered Clouds,310,2013-06-01 23:53:00
7:53 PM,70.0,63.0,78,29.91,10.0,NNW,6.9,-,N/A,,Partly Cloudy,330,2013-06-02 00:53:00
8:53 PM,64.9,61.0,87,29.94,10.0,NW,4.6,-,N/A,,Clear,310,2013-06-02 01:53:00
9:53 PM,64.9,59.0,81,29.96,10.0,Calm,Calm,-,N/A,,Clear,0,2013-06-02 02:53:00
10:53 PM,62.1,59.0,90,29.98,10.0,Calm,Calm,-,N/A,,Clear,0,2013-06-02 03:53:00
11:53 PM,62.1,57.9,86,29.99,10.0,Calm,Calm,-,N/A,,Clear,0,2013-06-02 04:53:00